Location: Misciano
(43.5000°N, 11.9500°E)
Time: 09:40:11
(UTC+00:00)

Meteor 2-20 Rocket - Pass Details

Date: 13 August 2020
Orbit: 940 x 960 km, 82.5° (Epoch: 20 September)

Event Time Altitude Azimuth Distance (km) Brightness Sun altitude
Rises 19:32:10 0° 354° (N) 3,651 8.1 -12.7°
Reaches altitude 10° 19:34:43 10° 357° (N) 2,700 7.4 -13.1°
Maximum altitude 19:40:51 65° 79° (E) 1,045 4.5 -14.0°
Enters shadow 19:45:56 15° 159° (SSE) 2,308 6.0 -14.8°
